Regional Weather Roundup
Issued by NWS

Home | Current Version | Previous Version | Text Only | Print | Product List | Glossary Off
Versions: 1 2 3 4 5 6 7 8 9 10 11 12 13 14 15 16 17 18 19 20 21 22 23 24 25 26 27 28 29 30 31 32 33 34 35 36 37 38 39 40 41 42 43 44 45 46 47 48 49 50

000
ASUS43 KBIS 240910
RWRND

NORTH DAKOTA REGIONAL WEATHER ROUNDUP
NATIONAL WEATHER SERVICE BISMARCK ND
300 AM CST MON NOV 24 2014

NOTE: "FAIR" INDICATES FEW OR NO CLOUDS BELOW 12,000 FEET WITH NO
SIGNIFICANT WEATHER AND/OR OBSTRUCTIONS TO VISIBILITY.


NDZ001>003-009>011-017-241000-
NORTHWEST NORTH DAKOTA

CITY           SKY/WX    TMP DP  RH WIND       PRES   REMARKS
WILLISTON      PTCLDY     7   3  84 W6        29.84R WCI  -3
MINOT          CLEAR      6   1  80 NW14      29.78R WCI -11
MINOT AFB      CLEAR      6   2  84 NW15      29.79R WCI -12
$$

NDZ018>021-031>035-040>046-241000-
SOUTHWEST NORTH DAKOTA

CITY           SKY/WX    TMP DP  RH WIND       PRES   REMARKS
BISMARCK       PTCLDY    14   9  80 NW14      29.76R WCI  -1
DICKINSON      CLEAR     14  10  84 NW13      29.75R WCI   0
GARRISON         N/A      8   4  83 N13       29.77R WCI  -8
HETTINGER ARPT CLOUDY    18  14  84 NW12      29.77R WCI   5
$$

NDZ004>008-012>016-024-026-027-054-241000-
NORTHEAST NORTH DAKOTA

CITY           SKY/WX    TMP DP  RH WIND       PRES   REMARKS
GRAND FORKS    FLURRIES  12   7  80 N25G33    29.63R WCI  -8
GRND FRKS AFB  CLOUDY    11   7  83 N23G33    29.63R WCI  -8
DEVILS LAKE    CLOUDY     9  -2  61 N25       29.66R WCI -13
$$

NDZ022-023-025-028>030-036>039-047>053-241000-
SOUTHEAST NORTH DAKOTA

CITY           SKY/WX    TMP DP  RH WIND       PRES   REMARKS
FARGO          LGT SNOW  15  10  80 NW25G32   29.60R WCI  -4
JAMESTOWN      CLOUDY    14   7  73 N18       29.63R WCI  -3
$$



USA.gov is the U.S. government's official web portal to all federal, state and local government web resources and services.